Regional Weather Roundup
Issued by NWS

Home | Current Version | Previous Version | Graphics & Text | Print | Product List | Glossary On
Versions: 1 2 3 4 5 6 7 8 9 10 11 12 13 14 15 16 17 18 19 20 21 22 23 24 25 26 27 28 29 30 31 32 33 34 35 36 37 38 39 40 41 42 43 44 45 46 47 48 49 50
000
ASUS43 KLSX 190657
RWRMO

WEATHER SUMMARY FOR MISSOURI
NATIONAL WEATHER SERVICE SPRINGFIELD MO
200 AM CDT TUE SEP 19 2017

NOTE: "FAIR" INDICATES FEW OR NO CLOUDS BELOW 12,000 FEET WITH NO
       SIGNIFICANT WEATHER AND/OR OBSTRUCTIONS TO VISIBILITY.
       CURRENT SKY AND/OR WEATHER CONDITIONS ARE NOT AVAILABLE FOR
       CHILLICOTHE AND FARMINGTON.

MOZ001>031-035>038-043-044-053-054-190800-
...NORTHERN AND WESTERN MISSOURI...

CITY           SKY/WX    TMP DP  RH WIND       PRES   REMARKS
KANSAS CTY INT CLOUDY    67  67 100 SE10      29.92S FOG
LEE`S SUMMIT   FOG       67  67 100 SE5       29.93F VSB 1/2
ST JOSEPH      CLOUDY    67  67 100 SE7       29.91S
CHILLICOTHE      N/A     63  63 100 CALM      29.94S

$$
MOZ066>068-077>081-088>096-101>105-190800-
...SOUTHWEST MISSOURI...

CITY           SKY/WX    TMP DP  RH WIND       PRES   REMARKS
SPRINGFIELD    CLEAR     68  67  96 S5        29.94F
JOPLIN         CLEAR     69  68  96 SE5       29.93S

$$
MOZ032>034-039>042-045>050-055>058-069>072-190800-
...CENTRAL MISSOURI...

CITY           SKY/WX    TMP DP  RH WIND       PRES   REMARKS
COLUMBIA       NOT AVBL
JEFFERSON CITY FOG       67  65  93 CALM      29.93S VSB 1/4
ROLLA          CLEAR     66  66 100 S7        29.96S
SEDALIA        FOG       63  63 100 SE5       29.94F VSB 1/4
WARRENSBURG    FOG       66  64  94 CALM      29.93S VSB 1/2

$$
MOZ051-052-059>065-190800-
...EAST CENTRAL MISSOURI...

CITY           SKY/WX    TMP DP  RH WIND       PRES   REMARKS
ST LOUIS INTL  CLOUDY    70  69  97 CALM      29.94F

$$
MOZ072>076-082>087-097>100-106>115-190800-
...SOUTH CENTRAL AND SOUTHEAST MISSOURI...

CITY           SKY/WX    TMP DP  RH WIND       PRES   REMARKS
CAPE GIRARDEAU CLOUDY    68  67  96 S5        29.94F
POPLAR BLUFF   PTCLDY    70  69  97 NE5       29.93S
WEST PLAINS    CLEAR     65  64  97 CALM      29.96F FOG

$$



USA.gov is the U.S. government's official web portal to all federal, state and local government web resources and services.